Wetbulb
41.58 36.77 35.19 38.24 36.83 37.63 37.27 35.71 34.76 34.25 37.95 37.31 36.82 36.95 38.78 40.06 38.82 37.76 38.05 38.45 41.78 45.90 42.57 43.33 45.81 50.36 56.43 57.57 58.80 61.55 61.86 61.94 61.70 61.02 60.59 62.18 62.62 63.33 63.52 63.96 63.87 63.62 63.23 62.65
37.35 34.28 39.43 40.59 40.23 38.86 36.86 35.70 33.64 34.88 37.19 36.41 35.38 36.90 37.37 38.83 39.30 39.32 38.87 38.09 41.37 40.04 41.09 42.87 43.12 42.63 46.07 48.64 55.82 59.71 61.71 61.49 61.74 62.05 60.80 61.13 62.86 63.11 63.47 63.47 63.61 63.77 63.32 62.65
35.01 37.43 41.29 40.18 37.98 36.86 34.26 33.66 32.43 34.65 34.30 33.93 32.88 33.47 35.76 38.56 38.68 39.41 40.09 39.66 39.87 40.28 41.59 42.70 44.71 43.96 43.79 43.52 44.64 53.29 60.06 61.28 61.97 61.90 62.01 61.96 61.90 61.99 62.17 62.34 62.68 63.26 63.49 62.92
37.78 41.27 39.48 38.34 37.83 37.61 31.99 37.02 36.46 34.85 32.15 28.77 32.69 27.27 30.38 35.15 37.44 38.70 39.44 38.82 39.92 40.47 42.20 43.12 43.83 42.81 45.10 46.29 44.56 45.55 54.77 60.66 61.04 62.66 62.23 61.48 60.39 59.60 60.59 61.24 61.23 59.67 59.42 59.09
36.28 38.05 37.16 36.59 38.23 38.86 35.50 38.59 36.62 34.21 31.55 30.45 28.36 27.24 29.82 31.66 32.80 37.05 38.10 38.54 40.45 40.96 42.58 43.29 44.24 45.81 44.90 46.67 42.37 45.54 52.08 59.90 61.04 62.12 62.46 61.15 59.94 59.43 58.46 57.49 56.94 54.35 50.82 50.76
39.16 40.34 40.41 39.72 38.74 39.16 39.34 37.57 35.19 33.50 31.19 24.99 29.08 28.80 28.00 29.97 35.07 38.68 36.63 38.91 39.34 40.77 41.44 43.03 44.13 45.07 44.56 45.10 46.02 47.62 50.56 52.44 57.93 59.84 61.18 59.86 57.79 56.24 54.39 51.72 49.40 48.11 47.60 46.63
35.08 35.61 37.36 40.99 36.92 37.92 37.90 34.64 25.91 24.87 24.80 23.66 26.44 25.26 31.49 32.87 35.83 37.15 39.60 37.99 38.71 40.37 40.78 41.70 41.84 41.87 42.27 42.89 43.53 45.44 47.78 46.15 50.04 51.97 52.95 52.04 50.02 47.56 47.13 44.83 43.38 41.86 41.24 40.91
29.35 27.27 34.96 38.69 37.94 34.29 33.65 35.00 25.05 19.90 19.21 22.00 26.01 25.00 31.48 34.80 37.04 38.01 39.23 39.59 39.25 39.30 40.80 40.89 40.97 40.95 41.40 41.79 41.75 41.97 42.74 42.37 44.30 45.53 46.04 45.96 44.50 43.53 42.36 41.46 40.74 39.93 39.47 38.87
30.94 30.04 35.95 36.95 38.38 38.51 34.43 31.06 33.49 25.95 16.96 22.43 23.92 27.06 34.19 35.66 35.52 36.75 37.44 38.79 38.55 38.88 40.20 40.26 40.31 40.12 39.91 39.93 40.20 40.63 40.74 40.48 41.51 41.98 42.22 41.25 41.14 40.59 39.58 38.85 38.10 37.35 37.66 38.32
34.45 28.76 34.66 35.81 37.68 37.29 35.70 36.83 29.75 26.62 19.14 16.59 21.98 23.01 27.75 31.58 35.87 36.06 36.72 38.04 38.35 39.31 39.55 39.53 39.46 39.31 39.35 39.46 39.31 39.39 39.78 39.49 39.50 40.16 40.08 39.08 38.05 37.65 36.68 36.26 35.39 35.48 35.68 35.77
35.80 33.56 30.74 34.97 33.40 32.94 32.86 31.23 30.41 30.60 27.27 22.14 17.62 24.02 31.08 35.07 38.09 36.75 37.84 38.90 39.10 39.39 39.68 39.22 38.66 38.84 38.54 38.13 38.23 37.90 38.31 38.21 37.94 37.91 37.33 36.53 35.75 35.62 35.50 34.75 33.78 33.79 34.15 34.18
36.57 32.94 27.36 30.54 34.57 35.52 33.50 33.56 33.38 28.48 24.74 23.98 24.04 25.75 33.94 33.89 36.00 38.50 37.88 39.14 39.36 40.07 39.44 38.89 38.65 37.70 37.09 36.87 36.85 36.63 36.54 36.93 36.58 36.56 35.98 35.43 35.03 34.08 33.29 32.67 32.53 32.74 32.43 32.91
37.29 31.36 25.07 28.11 31.76 33.57 32.49 33.54 33.89 31.35 28.86 24.81 24.47 26.86 34.43 33.10 35.05 38.70 38.67 39.14 39.70 38.92 38.73 38.65 37.32 36.78 35.92 35.37 35.72 35.33 35.51 35.76 35.62 35.30 34.43 33.60 32.92 32.16 31.57 31.44 31.73 31.55 31.18 31.00
40.83 33.23 30.32 26.60 29.99 32.56 29.49 31.77 32.80 33.58 26.20 25.25 25.47 28.77 31.83 33.25 35.04 37.24 39.34 39.63 39.39 39.48 39.41 38.45 37.35 36.45 36.19 36.00 35.69 35.24 34.80 35.20 34.14 33.52 32.79 31.68 31.31 31.08 30.98 30.73 29.84 29.85 29.99 29.35
37.84 29.30 31.54 31.97 33.32 34.31 32.54 32.74 33.37 32.34 34.95 30.53 33.42 29.41 33.39 34.71 35.88 38.32 39.86 39.58 39.04 39.04 39.22 39.11 38.29 37.52 36.19 35.12 34.94 35.21 35.11 34.27 33.71 32.59 31.47 31.02 30.99 30.42 29.32 28.81 28.38 28.07 27.50 27.95
35.87 26.11 30.50 28.64 33.24 32.39 30.09 32.53 33.00 34.19 33.65 31.24 29.52 29.25 35.61 35.34 37.40 37.73 39.19 39.82 39.34 39.60 39.91 39.94 39.55 38.20 36.47 35.74 35.24 35.24 34.50 33.29 32.39 31.04 30.54 30.54 29.49 28.01 27.49 27.06 26.95 26.99 26.57 26.29
35.07 29.88 25.56 20.62 28.86 29.56 26.82 31.09 32.16 33.67 35.79 35.44 31.26 36.92 35.15 34.77 36.91 38.50 38.93 40.43 40.53 40.96 40.87 40.43 40.30 38.85 37.36 36.30 35.84 34.47 33.35 32.04 30.42 29.73 29.06 28.30 27.47 26.63 26.15 25.98 25.84 25.60 25.26 25.42
36.09 33.55 30.51 25.39 26.41 19.85 30.89 34.72 35.41 34.31 34.30 37.08 35.04 34.50 36.07 37.71 38.34 39.94 41.49 41.29 41.85 42.39 41.89 41.57 41.27 40.22 38.30 36.73 35.23 33.73 32.48 30.75 29.87 28.70 27.44 26.77 26.33 25.03 24.20 23.93 23.79 23.84 24.02 23.37
35.94 35.69 30.01 29.04 27.82 30.29 33.25 32.72 31.72 30.64 32.12 35.34 35.34 37.98 35.69 37.20 37.34 37.64 41.77 43.49 43.46 43.65 43.56 43.06 42.76 40.89 37.90 35.10 33.63 32.35 30.36 29.31 28.64 27.21 26.73 26.09 24.92 23.11 22.16 21.23 21.50 22.35 21.54 21.65
34.10 35.17 32.80 23.29 24.66 21.56 28.95 37.57 35.53 37.01 30.16 39.90 38.06 38.04 34.42 36.28 33.36 38.62 39.98 43.10 43.53 44.31 44.04 42.53 40.91 38.92 35.69 33.72 32.62 30.92 29.39 28.32 27.48 26.97 26.36 25.14 23.28 20.75 20.05 21.17 20.70 20.75 19.18 21.64
29.44 27.82 29.07 22.23 19.89 24.82 31.34 31.87 37.05 28.59 31.54 33.35 37.03 38.24 34.63 35.99 40.58 41.02 39.15 39.69 41.39 40.54 39.14 38.43 37.81 34.74 34.77 32.60 31.51 29.84 28.62 27.73 27.60 25.73 23.71 21.80 20.86 19.98 19.91 19.02 19.03 16.05 13.29 15.68
28.93 27.49 24.68 21.99 20.55 22.83 31.64 32.17 32.76 34.96 31.99 33.56 35.34 36.20 36.30 37.80 35.29 35.18 36.19 36.40 37.00 35.84 34.85 35.22 34.47 34.53 33.12 32.25 31.37 29.40 27.76 26.64 24.03 22.14 19.75 18.35 17.88 21.08 18.49 15.59 12.96 10.72 9.98 8.74
29.05 31.86 28.48 30.57 28.84 32.10 30.75 30.91 31.17 32.89 32.15 30.83 33.80 35.19 35.65 34.85 34.61 34.16 34.00 33.46 33.58 34.26 34.42 34.45 34.55 31.44 30.95 30.95 31.51 28.05 25.20 23.06 20.73 18.75 17.08 15.76 16.82 17.46 16.23 12.95 10.60 10.75 5.95 6.34
28.33 30.00 29.63 31.93 28.96 29.21 30.31 30.41 30.16 30.98 30.66 31.96 33.02 33.94 33.03 33.03 32.43 31.24 30.94 30.69 30.76 30.70 30.79 30.57 29.32 28.84 27.71 27.29 28.06 28.34 23.33 21.20 18.83 17.18 16.20 15.45 15.66 14.62 12.28 15.43 14.14 7.22 4.92 4.24
30.43 30.83 26.97 27.65 29.83 28.79 29.58 30.02 31.17 31.46 32.03 31.47 32.65 31.82 33.55 31.65 30.33 29.48 29.86 28.40 29.11 28.38 26.01 27.97 29.26 28.48 26.98 25.53 22.61 22.38 20.11 18.85 17.30 16.96 15.50 15.48 13.44 12.98 10.96 11.97 9.57 12.27 11.54 11.16
32.13 31.73 31.32 27.57 33.92 33.16 32.99 33.09 31.71 31.88 31.80 30.97 31.17 31.66 31.33 31.13 31.60 29.37 27.63 27.78 27.15 26.13 24.97 26.18 25.79 26.73 22.99 22.22 19.03 17.55 17.37 18.17 16.61 15.07 14.85 13.22 11.94 10.23 10.15 9.38 8.41 16.10 18.98 21.23
MSLP
1016.60 1016.78 1015.55 1016.26 1016.41 1016.14 1016.23 1016.93 1017.35 1017.19 1017.07 1017.37 1017.34 1017.22 1017.32 1017.66 1018.30 1018.80 1019.26 1019.58 1019.66 1019.63 1019.59 1019.43 1019.23 1019.21 1019.60 1020.02 1020.62 1020.95 1021.29 1021.76 1022.36 1022.89 1023.28 1023.49 1023.67 1023.99 1024.16 1024.38 1024.46 1024.64 1024.88 1025.03
1017.09 1015.37 1016.05 1016.31 1016.25 1016.34 1016.29 1016.68 1017.51 1017.65 1017.53 1017.66 1017.81 1017.52 1017.63 1017.72 1017.91 1018.11 1018.58 1019.23 1019.36 1019.77 1019.98 1019.71 1019.81 1019.67 1019.64 1019.83 1020.40 1020.87 1020.96 1021.43 1021.93 1022.45 1022.79 1023.10 1023.37 1023.73 1023.85 1024.04 1024.35 1024.47 1024.54 1024.72
1016.33 1015.69 1015.89 1015.97 1016.07 1016.46 1016.34 1016.55 1017.35 1017.53 1018.07 1018.09 1018.26 1018.31 1017.90 1017.53 1017.73 1018.03 1018.23 1018.72 1019.27 1019.64 1020.11 1020.25 1020.16 1020.26 1020.25 1020.47 1020.77 1020.70 1020.80 1021.04 1021.45 1021.94 1022.51 1022.96 1023.43 1023.83 1024.10 1024.17 1024.23 1024.32 1024.38 1024.55
1016.77 1015.74 1015.71 1015.57 1015.63 1016.15 1016.19 1016.33 1016.95 1017.91 1018.49 1018.70 1018.55 1018.78 1018.06 1017.72 1017.71 1018.25 1018.54 1018.82 1019.26 1019.74 1020.27 1020.64 1020.78 1020.72 1020.45 1020.76 1020.96 1020.90 1020.77 1020.89 1021.14 1021.40 1022.11 1022.48 1023.12 1023.54 1023.79 1024.07 1024.31 1024.85 1024.91 1025.11
1016.11 1015.42 1015.33 1014.95 1014.73 1015.34 1015.79 1016.32 1017.19 1018.03 1018.75 1018.87 1019.39 1019.54 1017.86 1018.00 1018.15 1018.35 1018.52 1019.10 1019.31 1020.03 1020.28 1020.76 1020.96 1020.91 1020.76 1020.87 1021.14 1021.02 1020.94 1020.94 1021.11 1021.49 1021.70 1022.30 1022.96 1023.46 1023.89 1024.50 1024.92 1025.46 1025.76 1025.89
1016.67 1015.69 1015.19 1014.80 1015.23 1015.17 1015.73 1016.68 1018.01 1018.58 1019.46 1019.86 1019.07 1019.35 1017.92 1017.86 1017.03 1017.06 1018.31 1019.05 1019.40 1020.50 1020.89 1021.07 1021.10 1021.16 1021.20 1021.08 1021.25 1021.34 1021.23 1021.26 1021.24 1021.60 1021.71 1022.33 1022.98 1023.86 1024.50 1024.98 1025.45 1026.13 1026.43 1026.48
1016.63 1016.01 1015.34 1015.17 1016.06 1015.80 1015.42 1016.60 1018.62 1019.74 1020.20 1019.63 1019.43 1019.45 1017.24 1016.46 1016.25 1016.38 1017.11 1018.41 1019.27 1020.55 1021.29 1021.43 1021.32 1021.47 1021.70 1021.55 1021.64 1021.80 1021.44 1021.69 1021.59 1021.83 1022.07 1022.77 1023.35 1024.34 1025.25 1025.76 1026.12 1026.72 1027.02 1027.51
1015.09 1015.60 1015.12 1014.36 1014.50 1014.76 1015.24 1015.43 1016.97 1018.25 1019.98 1020.30 1020.04 1018.58 1016.39 1015.88 1015.87 1016.16 1016.96 1018.23 1019.45 1020.24 1021.32 1021.60 1021.51 1021.71 1021.84 1021.91 1022.10 1022.14 1022.05 1022.42 1022.51 1022.54 1022.97 1023.57 1024.28 1024.90 1025.66 1025.99 1026.70 1027.24 1027.51 1027.98
1013.24 1014.16 1014.44 1014.36 1014.21 1014.33 1015.06 1015.15 1015.98 1018.17 1020.62 1020.30 1019.15 1017.95 1016.34 1015.94 1016.26 1016.69 1017.41 1018.62 1019.51 1020.02 1021.03 1021.65 1021.67 1022.30 1022.36 1022.31 1022.31 1022.34 1022.62 1022.91 1022.96 1023.02 1023.65 1024.57 1025.14 1025.42 1026.16 1026.73 1027.16 1027.47 1027.79 1027.96
1011.97 1013.83 1014.75 1014.72 1014.49 1014.27 1014.02 1014.56 1016.16 1017.64 1019.51 1020.05 1019.10 1017.95 1016.30 1016.16 1016.16 1016.75 1017.64 1018.26 1019.24 1019.94 1021.10 1021.68 1021.91 1022.48 1022.55 1022.64 1022.80 1023.07 1023.03 1023.42 1023.62 1023.64 1024.13 1025.00 1025.66 1026.16 1026.62 1027.15 1027.75 1027.87 1027.99 1028.04
1011.82 1012.83 1015.21 1014.90 1014.59 1014.37 1014.61 1014.57 1015.39 1016.43 1017.66 1018.08 1018.35 1016.57 1014.59 1014.23 1014.41 1015.46 1016.67 1017.64 1018.71 1020.00 1020.92 1021.44 1021.98 1022.61 1022.95 1023.00 1023.24 1023.41 1023.63 1023.94 1024.34 1024.46 1024.89 1025.44 1026.25 1026.90 1027.13 1027.52 1028.03 1028.23 1028.31 1028.41
1011.82 1013.19 1014.87 1014.84 1014.55 1014.68 1014.48 1014.20 1014.58 1015.72 1017.05 1017.59 1017.13 1015.01 1013.65 1013.78 1014.38 1015.40 1016.68 1017.61 1018.61 1019.58 1020.61 1021.45 1021.96 1022.43 1022.99 1023.25 1023.64 1023.93 1024.03 1024.38 1024.68 1025.19 1025.74 1026.14 1026.52 1027.26 1027.59 1027.78 1028.24 1028.40 1028.60 1028.66
1011.50 1013.18 1014.79 1015.34 1015.31 1015.10 1014.75 1014.10 1013.86 1014.65 1015.60 1016.35 1016.50 1014.43 1013.77 1013.84 1014.41 1015.19 1016.30 1017.35 1018.37 1019.47 1020.60 1021.39 1021.93 1022.58 1022.94 1023.42 1023.67 1024.02 1024.28 1024.73 1025.08 1025.44 1026.17 1026.81 1027.21 1027.54 1027.96 1028.29 1028.49 1028.62 1028.82 1028.98
1010.86 1012.36 1013.28 1013.41 1013.04 1013.95 1014.54 1013.82 1013.61 1014.04 1015.31 1015.10 1014.53 1014.11 1013.73 1013.97 1014.32 1015.18 1016.06 1016.80 1017.82 1018.91 1019.92 1020.78 1021.72 1022.19 1022.77 1023.35 1023.72 1024.15 1024.58 1025.06 1025.48 1025.91 1026.62 1027.10 1027.65 1028.00 1028.26 1028.72 1028.71 1028.79 1028.99 1029.22
1011.25 1012.49 1013.43 1013.36 1013.05 1012.96 1012.67 1012.65 1013.00 1013.44 1012.94 1013.79 1012.58 1013.30 1012.84 1013.06 1013.66 1014.21 1015.31 1016.55 1017.56 1018.32 1019.14 1019.94 1020.75 1021.29 1022.12 1022.97 1023.67 1024.24 1024.85 1025.33 1025.57 1025.95 1026.76 1027.39 1027.87 1028.37 1028.71 1028.95 1029.02 1029.24 1029.27 1029.34
1011.90 1013.12 1013.73 1014.38 1013.94 1013.28 1013.06 1012.75 1012.87 1012.84 1012.50 1012.30 1012.01 1012.08 1011.85 1012.12 1013.37 1014.31 1014.77 1015.77 1016.47 1017.10 1017.80 1018.74 1019.74 1020.61 1021.23 1022.04 1022.87 1023.71 1024.45 1025.22 1025.64 1026.01 1026.81 1027.63 1028.15 1028.58 1028.93 1029.18 1029.27 1029.28 1029.27 1029.29
1012.12 1013.53 1014.56 1015.26 1014.98 1014.18 1013.78 1011.77 1011.82 1011.58 1011.15 1010.53 1011.10 1010.25 1011.59 1012.21 1012.59 1012.93 1013.76 1014.63 1014.84 1015.48 1016.30 1017.11 1018.05 1019.25 1020.20 1021.13 1022.07 1022.97 1023.80 1024.81 1025.61 1026.01 1026.77 1027.62 1027.95 1028.47 1028.82 1029.12 1029.28 1029.26 1029.29 1029.26
1012.25 1014.29 1014.84 1015.92 1015.47 1014.41 1011.11 1010.69 1010.42 1010.60 1010.03 1009.96 1010.18 1010.31 1010.69 1010.94 1011.23 1011.56 1012.17 1012.80 1013.32 1014.23 1015.16 1016.13 1017.16 1018.38 1019.40 1020.61 1021.79 1022.94 1023.92 1024.81 1025.61 1026.26 1026.97 1027.57 1027.91 1028.34 1028.70 1028.87 1029.01 1029.22 1029.39 1029.44
1012.23 1013.22 1014.91 1015.49 1015.42 1013.46 1011.16 1010.40 1010.47 1010.63 1009.81 1009.99 1009.90 1009.80 1010.41 1010.75 1011.15 1011.11 1011.25 1011.57 1011.84 1012.54 1013.04 1013.82 1015.28 1016.98 1018.65 1019.93 1021.20 1022.62 1023.87 1024.75 1025.73 1026.44 1026.99 1027.52 1027.71 1028.26 1028.65 1029.07 1029.34 1029.41 1029.49 1029.55
1012.76 1012.74 1013.93 1015.30 1014.83 1013.20 1010.01 1009.59 1009.82 1010.47 1009.64 1008.50 1008.77 1009.31 1010.30 1010.81 1011.33 1009.45 1010.08 1010.37 1010.91 1011.61 1012.90 1014.00 1015.26 1016.79 1018.11 1019.36 1020.71 1022.20 1023.40 1024.26 1025.05 1025.74 1026.55 1027.11 1027.61 1028.10 1028.47 1028.73 1029.19 1029.46 1029.54 1029.93
1013.86 1014.10 1014.00 1014.63 1014.27 1011.58 1010.01 1009.58 1009.78 1010.67 1007.93 1007.47 1008.07 1008.74 1009.60 1010.27 1008.99 1008.25 1008.93 1010.03 1010.76 1011.54 1012.50 1013.73 1014.92 1016.11 1017.35 1018.93 1020.25 1021.77 1022.95 1023.77 1024.44 1025.53 1026.36 1027.20 1027.82 1028.12 1028.43 1028.82 1029.19 1029.45 1029.86 1030.16
1012.79 1013.63 1013.94 1014.22 1013.86 1011.69 1009.71 1010.19 1009.84 1009.03 1008.69 1008.85 1008.99 1009.20 1009.52 1009.19 1009.38 1009.66 1010.07 1010.53 1011.25 1011.93 1012.86 1013.67 1015.12 1016.27 1017.31 1018.37 1019.49 1021.02 1022.35 1023.49 1024.71 1025.75 1026.65 1027.47 1027.81 1028.23 1028.63 1028.99 1029.26 1029.63 1029.88 1030.08
1011.90 1011.14 1011.67 1011.70 1010.58 1009.82 1009.98 1010.13 1009.79 1009.66 1009.71 1009.83 1010.02 1009.79 1009.66 1009.91 1010.36 1010.93 1011.25 1011.78 1012.23 1012.47 1013.13 1014.07 1015.02 1016.28 1017.53 1018.44 1019.14 1020.75 1022.25 1023.46 1024.73 1025.91 1026.96 1027.57 1028.02 1028.34 1028.69 1028.91 1029.21 1029.49 1029.74 1029.83
1011.63 1011.17 1010.98 1011.09 1010.38 1010.15 1010.16 1010.40 1010.28 1010.17 1010.24 1010.50 1010.63 1010.74 1010.66 1010.65 1011.14 1011.79 1012.28 1012.74 1013.11 1013.46 1014.09 1014.79 1015.67 1016.71 1017.79 1018.72 1019.45 1020.39 1022.04 1023.39 1024.70 1025.89 1026.70 1027.47 1028.03 1028.10 1028.48 1028.63 1028.85 1029.22 1029.37 1029.39
1011.92 1011.45 1011.03 1010.74 1010.51 1010.66 1010.74 1010.77 1010.75 1010.82 1010.83 1010.95 1011.17 1011.27 1011.60 1011.35 1011.94 1012.79 1013.35 1013.73 1014.09 1014.56 1015.16 1015.63 1016.03 1016.77 1017.87 1018.86 1020.01 1021.21 1022.30 1023.44 1024.62 1025.67 1026.47 1027.06 1027.52 1027.75 1028.27 1028.50 1028.83 1028.50 1028.38 1028.21
1011.87 1011.30 1011.09 1010.81 1010.76 1010.79 1010.95 1010.97 1011.10 1011.39 1011.32 1011.35 1011.51 1011.78 1012.35 1012.30 1012.59 1013.55 1014.24 1014.58 1014.90 1015.40 1015.83 1016.29 1016.77 1017.41 1018.44 1019.42 1020.61 1021.88 1022.78 1023.51 1024.42 1025.63 1026.49 1026.93 1027.19 1027.92 1028.39 1028.76 1028.70 1027.89 1027.40 1027.25
Wind_Speed
7 7 22 18 3 6 8 6 7 3 3 5 8 4 9 7 5 7 8 9 8 9 3 3 5 6 7 6 8 13 13 10 8 4 4 4 4 3 2 3 5 5 4 5
5 18 8 8 9 4 6 9 5 0 1 3 4 9 3 5 6 8 11 9 10 6 5 5 3 3 4 7 7 7 12 13 10 7 4 3 3 2 3 3 4 5 5 5
5 3 7 8 6 9 4 7 5 5 3 3 4 7 4 5 3 3 4 5 5 10 9 5 5 3 3 3 2 6 8 12 12 9 5 3 4 2 2 2 2 3 4 4
8 3 10 7 13 9 6 7 7 8 6 5 4 6 6 7 8 6 7 8 9 9 5 3 4 2 3 2 2 3 7 11 9 11 8 10 5 4 3 2 3 6 9 8
11 11 9 12 13 9 6 8 10 7 5 5 2 1 8 2 6 9 12 9 7 7 8 8 6 4 3 2 3 3 5 9 10 10 11 7 5 4 4 5 7 8 7 8
10 5 8 9 1 8 8 8 6 5 4 3 7 8 7 7 12 14 4 10 9 8 7 6 5 5 3 3 4 3 5 3 7 7 10 8 10 8 6 5 6 4 4 5
7 6 3 11 3 0 6 9 2 0 2 7 3 4 9 6 8 9 18 11 10 9 7 7 8 6 4 6 5 4 6 6 6 8 10 10 11 9 9 6 6 5 4 4
8 7 8 6 10 9 8 12 7 8 6 3 2 8 8 5 4 6 8 11 11 9 7 7 7 6 6 6 6 6 7 8 7 10 12 11 10 7 6 7 6 4 5 4
14 6 0 2 2 6 7 8 6 9 4 4 5 6 9 0 1 4 9 13 12 10 8 8 7 6 6 6 6 7 8 8 8 11 11 10 9 10 9 8 6 5 5 4
6 5 1 1 1 0 5 8 4 2 6 4 5 4 6 6 11 8 12 15 11 9 9 7 7 7 4 5 6 6 7 9 8 11 10 10 9 9 8 7 7 6 5 5
4 5 2 3 5 8 2 3 3 6 5 7 2 8 10 17 16 17 14 13 13 12 12 10 8 7 6 6 6 7 8 10 9 10 10 11 9 8 7 7 6 6 6 6
2 6 4 6 1 1 2 7 8 6 7 1 3 8 2 6 7 9 10 12 11 13 11 10 9 8 7 7 6 6 6 8 8 8 10 10 9 7 7 7 6 6 6 5
8 2 4 4 3 1 6 5 5 5 4 9 7 7 1 2 6 10 15 13 13 12 11 10 8 9 8 7 7 7 7 8 8 9 9 8 7 7 7 6 5 5 5 5
10 4 7 10 8 9 6 7 6 8 4 4 8 6 5 5 8 9 12 14 14 15 15 13 11 10 9 9 9 8 7 7 7 8 8 8 7 6 6 5 5 5 5 5
6 6 5 2 4 11 6 9 15 14 21 14 21 11 10 9 13 17 12 12 15 16 16 16 15 14 12 10 9 8 9 8 8 9 8 7 6 6 5 5 5 5 5 4
2 2 3 1 6 0 4 10 13 15 12 10 2 6 8 4 8 10 14 16 17 19 19 18 17 16 16 16 14 12 11 10 8 8 8 7 6 6 5 5 5 4 4 4
7 5 3 5 2 3 4 14 15 16 17 18 16 22 7 5 10 15 15 18 22 21 22 22 22 20 18 17 16 15 13 10 9 9 8 7 7 6 5 5 5 4 5 4
16 10 3 2 3 4 7 7 11 16 9 18 8 4 10 9 10 10 13 20 22 20 20 20 19 18 18 16 14 12 11 10 10 8 8 6 6 6 5 5 5 4 3 4
2 16 4 6 6 9 10 7 8 8 10 8 13 16 7 5 4 7 13 17 22 22 22 22 19 18 18 17 15 15 12 10 9 9 8 7 6 6 5 5 4 3 3 3
4 4 8 3 5 14 1 18 6 9 18 17 14 12 9 8 6 16 15 19 20 17 14 16 17 15 17 17 17 17 14 13 12 10 9 7 6 6 6 5 5 2 2 1
4 2 13 4 5 11 8 4 9 10 14 4 10 13 10 11 18 11 7 10 11 10 12 13 18 19 19 17 18 16 14 14 10 8 8 6 5 5 5 5 3 3 2 2
9 8 5 3 1 17 4 4 17 5 3 2 1 3 8 13 0 1 3 6 11 14 15 19 18 17 16 18 19 17 15 9 10 9 8 6 5 4 4 5 3 2 4 4
5 7 8 11 9 3 1 3 2 1 2 2 2 3 3 5 4 5 4 6 7 11 13 14 15 15 14 16 17 17 11 13 11 9 7 5 5 4 4 4 4 3 3 3
3 2 4 4 2 3 3 0 1 2 3 3 3 4 2 1 2 3 4 5 6 7 10 9 14 15 14 11 11 12 14 12 11 9 8 6 7 6 3 2 3 3 3 2
2 4 5 4 0 1 2 2 3 2 0 1 2 2 5 1 2 2 3 2 3 5 5 9 13 13 14 11 10 11 12 12 10 9 7 7 5 4 3 2 3 3 3 4
4 4 3 2 0 2 3 1 0 5 3 0 2 4 3 0 3 3 2 3 4 6 5 6 6 10 10 11 10 10 10 11 11 8 6 5 5 3 3 2 2 3 3 1
Wind_Direction
179 172 205 204 143 156 141 137 171 218 203 144 205 218 207 194 186 207 218 214 211 204 189 138 136 141 146 151 165 182 174 179 162 155 157 174 177 176 180 194 214 208 206 206
164 215 180 154 181 189 141 160 186 68 60 157 163 233 234 202 224 198 194 210 199 168 180 153 118 81 110 142 167 177 183 171 172 171 165 153 144 161 177 189 211 217 214 204
182 260 171 162 175 192 200 167 174 161 140 60 108 305 212 234 216 180 200 190 170 180 181 171 138 101 81 118 180 186 176 175 173 164 135 87 82 79 144 197 209 230 233 223
264 191 184 189 198 187 202 194 167 147 129 190 154 257 247 216 199 201 202 182 177 176 160 153 158 130 121 191 241 239 186 168 168 165 160 156 167 159 174 116 61 56 51 49
205 225 197 198 203 166 196 142 161 159 146 122 207 136 261 134 213 221 211 205 185 186 162 164 165 146 57 43 220 220 199 175 170 172 164 159 140 125 108 99 93 80 60 49
252 295 187 193 285 186 142 97 50 66 101 248 197 167 256 188 204 207 176 203 179 172 166 159 144 126 99 80 111 119 122 103 145 155 147 143 132 122 115 104 94 72 67 59
169 208 213 155 201 252 163 144 127 94 187 217 158 156 239 228 234 207 201 187 165 168 169 161 149 139 125 114 115 118 120 94 104 109 108 107 110 103 109 112 100 95 66 37
159 199 186 176 192 181 192 173 154 175 187 206 122 228 245 223 280 237 187 161 155 157 171 165 156 150 144 126 113 108 104 96 93 104 100 100 98 106 98 98 100 89 90 82
176 181 209 184 155 173 190 187 153 98 19 73 213 282 301 197 106 148 148 157 172 161 163 163 146 154 146 136 129 122 113 101 102 102 103 99 104 102 108 97 95 99 95 84
182 130 50 121 203 28 187 156 106 12 136 221 261 263 234 233 224 182 177 179 171 156 156 154 151 159 148 130 113 100 103 113 110 106 106 105 102 100 99 96 94 91 87 80
126 113 157 108 208 169 146 203 76 119 147 173 178 254 214 205 206 191 187 172 164 164 165 165 157 153 141 120 119 114 109 111 103 104 108 107 102 98 97 96 89 82 79 71
113 103 144 194 261 320 277 208 173 170 221 289 158 264 177 226 205 167 170 168 166 166 165 162 158 149 147 137 129 122 110 112 111 109 109 109 108 104 99 92 85 82 84 76
175 126 96 49 7 262 225 207 172 106 75 198 171 254 21 319 165 175 169 171 166 160 160 162 152 161 152 148 144 138 131 127 123 119 117 109 106 106 103 103 99 90 93 76
120 143 169 189 208 133 209 210 188 183 171 183 224 221 246 215 185 175 180 175 167 168 172 169 167 165 165 165 158 149 137 138 130 122 121 118 119 118 114 114 107 96 85 74
148 188 181 257 208 190 202 203 194 198 216 195 235 201 225 213 195 193 179 164 172 178 179 180 178 174 170 164 160 155 151 150 144 132 127 130 125 118 117 111 97 92 82 72
63 204 133 349 339 243 185 197 188 212 226 251 172 249 211 212 123 165 186 179 184 191 188 183 182 179 176 174 171 164 160 157 146 137 135 135 129 126 121 112 112 105 84 52
123 127 92 252 285 76 314 206 195 220 217 216 222 236 157 186 194 191 185 189 196 195 190 187 187 184 181 177 170 171 163 149 148 141 141 150 143 135 131 123 112 83 61 51
179 204 106 148 7 186 259 201 188 204 216 220 237 226 182 198 208 204 197 195 203 199 193 190 188 185 179 171 168 152 151 154 150 148 149 153 148 138 139 126 96 81 61 52
337 185 178 211 209 307 278 239 158 164 257 205 214 237 190 187 112 256 202 208 208 198 196 193 186 177 168 166 157 153 154 150 148 159 162 162 152 142 129 115 114 108 80 54
64 145 173 144 177 222 308 218 175 92 268 232 225 232 175 143 207 243 193 205 209 204 189 182 174 168 162 163 155 156 163 162 172 168 164 151 146 148 142 139 144 126 86 92
101 57 198 156 230 276 226 125 130 149 263 219 189 209 170 193 218 250 182 203 199 179 160 150 161 169 168 156 155 162 163 178 166 143 133 134 143 145 139 138 126 109 129 73
156 149 187 98 123 259 144 48 164 228 25 17 72 173 196 228 197 167 239 181 160 155 150 159 162 171 165 162 161 164 173 147 131 134 138 145 148 149 139 133 123 134 139 131
177 186 173 184 213 219 193 15 46 76 109 45 342 339 296 212 203 182 194 163 166 162 160 164 163 154 161 167 167 161 152 142 140 139 143 141 142 153 155 147 143 139 117 93
250 209 178 103 209 181 178 28 30 35 77 23 11 320 262 281 220 214 171 159 147 149 156 152 148 157 158 161 154 151 146 141 142 143 148 152 167 156 153 141 156 142 141 124
209 133 167 281 222 58 55 214 230 173 53 357 5 12 307 179 219 217 198 154 141 137 120 154 163 164 163 150 126 132 138 141 144 148 157 164 156 148 139 161 196 198 217 170
196 171 183 173 234 136 179 180 140 181 217 12 26 352 339 132 176 155 179 172 144 146 135 147 151 158 152 138 129 133 142 149 148 150 161 165 148 150 158 166 258 280 233 272